Yakima, WA
on Wednesday, November 7, 2012

Wednesday
Previous Day Next Day
Daily Summary
 ActualAverageRecord
Temperature
Mean Temperature °F 41°F  
Max Temperature 58°F 52°F 66°F (2006)
Min Temperature 30°F 29°F 15°F (1959)
Degree Days
Heating Degree Days 21 24  
Month to date heating degree days 106 163  
Since 1 July heating degree days 643 867  
Cooling Degree Days 0 0  
Month to date cooling degree days 0 0  
Year to date cooling degree days 667 472  
Moisture
Dew Point 29°F   
Average Humidity 58    
Maximum Humidity 85    
Minimum Humidity 30    
Precipitation
Precipitation 0.00 in 0.03 in 0.61 in (1997)
Month to date precipitation 0.06 0.20  
Year to date precipitation 6.59 5.87  
Snow
Snow 0.00 in 0.10 in 1.60 in (1995)
Month to date snowfall 0.0 0.2  
Year to date snowfall 21.5 8.9  
Since 1 July snowfall 0.0 0.3  
Snow Depth 0.00 in   
Wind
Wind Speed 7 mph   
Max Wind Speed 20 mph   
Max Gust Speed 30 mph   
Visibility 9 miles   
Events     

Key: T is trace of precipitation, MM is missing value
Source: NWS Daily Summary
Time(PST)TemperatureDew PointHumidity Pressure Visibility Wind DirectionWind SpeedGust SpeedPrecipitationEvents Conditions
12:53 AM 54.0°F 33.1°F 45% 29.94 in 5.0 miles WNW 11.5 mph - N/A   Haze
1:53 AM 51.1°F 30.9°F 46% 29.96 in 10.0 miles SW 6.9 mph - N/A   Clear
2:53 AM 48.9°F 30.9°F 50% 29.97 in 4.0 miles WNW 8.1 mph - N/A   Haze
3:53 AM 50.0°F 28.9°F 44% 29.98 in 6.0 miles WNW 11.5 mph - N/A   Haze
4:53 AM 46.0°F 30.9°F 56% 30.01 in 9.0 miles NW 3.5 mph - N/A   Mostly Cloudy
5:53 AM 48.0°F 32.0°F 54% 30.04 in 10.0 miles WSW 9.2 mph 29.9 mph N/A   Partly Cloudy
6:53 AM 44.1°F 32.0°F 63% 30.06 in 10.0 miles NNE 5.8 mph - N/A   Clear
7:53 AM 43.0°F 33.1°F 68% 30.09 in 10.0 miles SW 3.5 mph - N/A   Clear
8:53 AM 50.0°F 34.0°F 54% 30.09 in 10.0 miles NE 4.6 mph - N/A   Clear
9:53 AM 53.1°F 28.9°F 40% 30.08 in 10.0 miles WNW 3.5 mph - N/A   Clear
10:53 AM 55.9°F 27.0°F 33% 30.07 in 10.0 miles West 11.5 mph 17.3 mph N/A   Clear
11:53 AM 57.0°F 27.0°F 32% 30.05 in 10.0 miles WNW 9.2 mph - N/A   Clear
12:53 PM 55.0°F 28.0°F 35% 30.05 in 10.0 miles Calm Calm - N/A   Mostly Cloudy
1:53 PM 57.0°F 28.9°F 34% 30.05 in 10.0 miles South 8.1 mph - N/A   Scattered Clouds
2:53 PM 55.9°F 26.1°F 32% 30.04 in 10.0 miles WSW 4.6 mph - N/A   Mostly Cloudy
3:53 PM 53.1°F 30.0°F 41% 30.04 in 10.0 miles NE 10.4 mph - N/A   Mostly Cloudy
4:53 PM 50.0°F 30.0°F 46% 30.05 in 10.0 miles NNE 8.1 mph - N/A   Mostly Cloudy
5:53 PM 42.1°F 30.9°F 65% 30.05 in 10.0 miles WSW 3.5 mph - N/A   Mostly Cloudy
6:53 PM 37.9°F 28.9°F 70% 30.04 in 10.0 miles WNW 4.6 mph - N/A   Clear
7:53 PM 37.0°F 28.9°F 73% 30.03 in 10.0 miles West 8.1 mph - N/A   Clear
8:53 PM 36.0°F 28.9°F 76% 30.01 in 10.0 miles WSW 8.1 mph - N/A   Clear
9:53 PM 30.9°F 26.1°F 82% 30.00 in 10.0 miles West 5.8 mph - N/A   Clear
10:53 PM 30.0°F 25.0°F 82% 29.97 in 10.0 miles West 8.1 mph - 0.00 in   Clear
11:53 PM 30.2°F 26.6°F 86% 29.94 in 10.0 miles West 8.1 mph - N/A   Scattered Clouds
Moon Phase
Nov. 07 Nov. 13 Nov. 20 Nov. 28 Dec. 06
Sunrise:06:53 AM (PST) Moon Rise:No Moon Rise/
Sunset:04:37 PM (PST) Moon Set:01:11 PM (PST)11/7

Copyright © 2014 The Weather Underground, Inc.